Location: McFarlands Corners
(41.4117°N, 81.3382°W)
Time: 13:15:12
(UTC+00:00)

Transit 4A - Pass Details

Date: 21 February 2026
Orbit: 863 x 978 km, 66.8° (Epoch: 17 March)

Event Time Altitude Azimuth Distance (km) Brightness Sun altitude
Rises 09:29:52 0° 241° (WSW) 3,456 - -30.9°
Reaches altitude 10° 09:32:39 10° 253° (WSW) 2,535 - -30.4°
Maximum altitude 09:37:43 30° 313° (NW) 1,565 - -29.5°
Exits shadow 09:39:47 24° 346° (NNW) 1,777 9.3 -29.1°
Drops below altitude 10° 09:42:57 10° 13° (NNE) 2,608 10.5 -28.6°
Sets 09:45:52 0° 24° (NNE) 3,574 11.4 -28.0°
